Location: Newark
(25.1987°N, 100.3705°W)
Time: 05:19:33
(UTC+00:00)

LightSail 2 - Pass Details

Date: 10 April 2020
Orbit: 695 x 719 km, 24.0° (Epoch: 28 May)

Event Time Altitude Azimuth Distance (km) Brightness Sun altitude
Exits shadow 10:59:49 39° 259° (W) 1,033 5.5 -19.1°
Maximum altitude 11:01:41 79° 179° (S) 709 5.0 -18.7°
Drops below altitude 10° 11:06:44 10° 93° (E) 2,141 8.7 -17.7°
Sets 11:09:09 0° 92° (E) 3,056 9.8 -17.1°
